[[{"header":{"parameterUnit":"m.s-1","parameterCategory":1,"la1":30.2991,"la2":30.254,"lo1":-89.0895,"lo2":-89.0444,"dy":0.0017,"dx":0.0017,"nx":28,"ny":28,"refTime":"2025-02-05T09:00:00:Z","depth":0,"parameterNumber":2,"parameterNumberName":"U-component_of_WINDS"},"data":[0,0,0,0,0,0,0,0,0,0,0,0,0,0,0,0,0,0,0,0,0,0,0,0,0,0,0,0,0,0,0,0,0,0,0,0,0,0,0,0,0,0,0,0,0,0,0,0,0,0,0,0,0,0,0,0,0,0,-0.6006,-0.6006,0,-0.5952,-0.5951,-0.5951,-0.5908,-0.5907,-0.5907,-0.5906,-0.5851,-0.585,-0.5849,0,0,0,0,0,0,0,0,0,0,0,0,0,-0.6074,-0.6073,-0.6006,-0.6006,-0.6005,-0.5952,-0.5951,-0.5951,-0.5908,-0.5907,-0.5907,-0.5906,-0.5852,-0.585,-0.5849,0,0,0,0,0,0,0,0,0,0,0,0,0,-0.6035,-0.6072,-0.6007,-0.5977,-0.5974,-0.5952,-0.5951,-0.595,-0.5908,-0.5907,-0.5907,-0.5906,-0.5852,-0.5851,-0.5849,-0.5852,0,0,-0.5844,-0.5843,0,0,0,0,0,0,0,0,-0.6037,-0.6032,-0.5982,-0.5979,-0.5976,-0.5936,-0.5955,-0.5917,-0.5908,-0.5933,-0.5906,-0.5906,-0.588,-0.5876,-0.5867,-0.5849,-0.5847,-0.5844,-0.5843,-0.5842,-0.5842,0,0,0,0,0,0,0,-0.604,-0.6034,-0.5985,-0.5982,-0.5978,-0.5967,-0.5961,-0.5948,-0.5911,-0.5931,-0.5928,-0.5922,-0.5878,-0.5869,-0.5866,-0.5846,-0.5844,-0.5843,-0.5842,-0.5841,-0.5828,-0.5828,0,0,0,0,0,0,-0.6047,-0.6037,-0.5987,-0.5983,-0.6005,-0.5966,-0.5959,-0.5949,-0.5911,-0.5904,-0.5922,-0.592,-0.5872,-0.5868,-0.5864,-0.5864,-0.5842,-0.5841,-0.584,-0.5827,-0.5828,-0.5828,0,0,0,0,0,0,-0.6048,-0.6043,-0.5989,-0.6009,-0.6001,-0.5966,-0.5955,-0.5949,-0.5939,-0.5904,-0.5898,-0.592,-0.5871,-0.5866,-0.5855,-0.5862,-0.584,-0.5839,-0.5826,-0.5827,-0.5828,-0.5866,0,0,0,0,0,0,-0.605,-0.6044,-0.6044,-0.6009,-0.6,-0.5981,-0.5955,-0.5948,-0.5937,-0.5933,-0.59,-0.5894,-0.587,-0.5858,-0.5853,-0.5859,-0.5837,-0.5825,-0.5827,-0.5828,-0.5864,-0.5868,-0.5871,0,0,0,0,0,-0.6053,-0.6057,-0.6044,-0.6039,-0.6001,-0.5982,-0.5976,-0.5949,-0.5937,-0.5938,-0.5915,-0.5895,-0.5862,-0.5857,-0.5852,-0.5857,-0.5825,-0.5826,-0.5828,-0.5862,-0.5867,-0.5871,0,0,0,0,0,0,-0.6094,-0.6052,-0.6037,-0.603,-0.601,-0.5974,-0.5974,-0.5955,-0.5938,-0.5935,-0.5902,-0.5895,-0.5887,-0.5871,-0.5867,-0.5858,-0.5841,-0.5841,-0.5869,-0.5873,-0.5877,-0.5881,-0.5836,0,0,0,0,0,-0.6102,-0.609,-0.6054,-0.6051,-0.6042,-0.601,-0.6001,-0.5981,-0.5958,-0.595,-0.5926,-0.5905,-0.589,-0.5881,-0.5865,-0.5861,-0.5853,-0.5862,-0.5866,-0.5869,-0.587,-0.5867,-0.587,-0.5833,-0.5833,-0.5833,0,0,-0.6119,-0.6095,-0.6089,-0.6059,-0.6041,-0.6029,-0.6003,-0.5992,-0.5982,-0.5948,-0.5936,-0.5918,-0.5893,-0.5886,-0.5881,-0.5872,-0.5879,-0.5871,-0.5874,-0.5873,-0.5868,-0.5872,-0.5875,-0.5834,-0.5834,-0.5833,0,0,-0.6144,-0.6124,-0.6119,-0.6102,-0.6074,-0.6053,-0.6052,-0.6019,-0.6006,-0.5993,-0.5967,-0.5956,-0.593,-0.5913,-0.5901,-0.5919,-0.59,-0.5915,-0.5934,-0.5931,-0.5934,-0.5937,-0.5943,-0.5946,-0.5916,-0.5916,-0.5916,0,-0.6168,-0.6149,-0.6119,-0.611,-0.6097,-0.6065,-0.606,-0.6044,-0.6013,-0.6006,-0.5995,-0.5962,-0.5943,-0.5931,-0.5935,-0.5927,-0.5925,-0.5918,-0.5936,-0.5938,-0.594,-0.5946,-0.5948,-0.5918,-0.5917,-0.5917,-0.5917,0,-0.618,-0.6168,-0.6167,-0.6137,-0.6125,-0.6118,-0.6087,-0.6078,-0.606,-0.604,-0.6027,-0.6003,-0.5981,-0.5977,-0.5959,-0.5963,-0.5958,-0.5943,-0.5925,-0.5946,-0.5951,-0.5953,-0.592,-0.592,-0.5919,-0.5919,0,0,-0.6229,-0.6183,-0.6183,-0.6169,-0.6137,-0.6126,-0.6118,-0.6096,-0.6089,-0.6069,-0.606,-0.6039,-0.6025,-0.6011,-0.5991,-0.5989,-0.6004,-0.5974,-0.5973,-0.598,-0.6006,-0.6018,-0.6021,-0.5992,-0.5992,-0.5992,-0.6008,0,-0.6248,-0.623,-0.6203,-0.6195,-0.6182,-0.6152,-0.6144,-0.6123,-0.6104,-0.6091,-0.607,-0.6056,-0.6038,-0.6029,-0.6026,-0.6003,-0.6009,-0.6002,-0.5984,-0.5983,-0.5991,-0.6023,-0.6035,-0.6051,-0.601,-0.601,-0.601,0,-0.6268,-0.6249,-0.6239,-0.6207,-0.6201,-0.6194,-0.6172,-0.616,-0.6136,-0.6122,-0.6107,-0.6085,-0.6074,-0.6059,-0.6043,-0.6039,-0.603,-0.6018,-0.6018,-0.6015,-0.5998,-0.602,-0.6056,-0.6058,-0.6013,-0.6013,-0.6012,0,-0.6304,-0.6276,-0.6266,-0.6255,-0.6218,-0.6214,-0.6198,-0.6173,-0.6162,-0.6143,-0.6135,-0.6115,-0.6104,-0.609,-0.6063,-0.6054,-0.6051,-0.6033,-0.6039,-0.604,-0.6039,-0.604,-0.6074,-0.6034,-0.6034,-0.6034,-0.6034,0,-0.6328,-0.6323,-0.6282,-0.6276,-0.6269,-0.6238,-0.6233,-0.6214,-0.6192,-0.6182,-0.6155,-0.6146,-0.6112,-0.6099,-0.6078,-0.6068,-0.6064,-0.6052,-0.6047,-0.6055,-0.6056,-0.6048,-0.6046,-0.6035,-0.6035,-0.6035,-0.6035,0,-0.6368,-0.634,-0.6327,-0.6292,-0.6283,-0.628,-0.625,-0.6243,-0.6223,-0.621,-0.6205,-0.6173,-0.6156,-0.6128,-0.6104,-0.609,-0.6084,-0.6075,-0.6092,-0.6089,-0.6097,-0.6096,-0.6126,-0.6129,-0.6089,-0.6089,-0.6089,0,-0.6385,-0.638,-0.6345,-0.6336,-0.6321,-0.6307,-0.6295,-0.6264,-0.6253,-0.6225,-0.6222,-0.6203,-0.6186,-0.6161,-0.6136,-0.6117,-0.6107,-0.6119,-0.6104,-0.6112,-0.6106,-0.6107,-0.6106,-0.6122,-0.6123,-0.6123,-0.6123,0,-0.6418,-0.6404,-0.6388,-0.6367,-0.6354,-0.6336,-0.6317,-0.6311,-0.6276,-0.6265,-0.6247,-0.6234,-0.6209,-0.6191,-0.6168,-0.6152,-0.6132,-0.6128,-0.6129,-0.6136,-0.6146,-0.6141,-0.6101,-0.6128,-0.6127,-0.6127,-0.6127,-0.6127,-0.6447,-0.6441,-0.6415,-0.6398,-0.638,-0.6362,-0.6354,-0.6332,-0.6316,-0.6293,-0.6276,-0.626,-0.6235,-0.6203,-0.6188,-0.6175,-0.6166,-0.6166,-0.6167,-0.6167,-0.617,-0.6149,-0.6171,-0.6171,-0.617,-0.617,-0.617,0,-0.6478,-0.646,-0.6444,-0.6418,-0.6404,-0.6386,-0.6364,-0.6354,-0.6339,-0.6318,-0.6302,-0.6282,-0.6264,-0.6237,-0.6217,-0.6212,-0.6202,-0.6207,-0.6207,-0.6204,-0.6179,-0.6181,-0.6216,-0.6216,-0.6215,-0.6215,-0.6215,-0.6215,-0.6493,-0.6482,-0.6465,-0.6445,-0.6427,-0.641,-0.6399,-0.6383,-0.6365,-0.6344,-0.6329,-0.6311,-0.6287,-0.6265,-0.6248,-0.624,-0.6234,-0.6243,-0.6232,-0.621,-0.6206,-0.6202,-0.6203,-0.6242,-0.6242,-0.6258,-0.6258,-0.6258]},{"header":{"parameterUnit":"m.s-1","parameterCategory":1,"la1":30.2991,"la2":30.254,"lo1":-89.0895,"lo2":-89.0444,"dy":0.0017,"dx":0.0017,"nx":28,"ny":28,"refTime":"2025-02-05T09:00:00:Z","depth":0,"parameterNumber":3,"parameterNumberName":"V-component_of_WINDS"},"data":[0,0,0,0,0,0,0,0,0,0,0,0,0,0,0,0,0,0,0,0,0,0,0,0,0,0,0,0,0,0,0,0,0,0,0,0,0,0,0,0,0,0,0,0,0,0,0,0,0,0,0,0,0,0,0,0,0,0,2.071,2.0711,0,2.0774,2.0774,2.0775,2.0789,2.0788,2.0788,2.0787,2.085,2.0852,2.0854,0,0,0,0,0,0,0,0,0,0,0,0,0,2.0598,2.06,2.071,2.0711,2.0712,2.0774,2.0774,2.0775,2.0789,2.0788,2.0788,2.0787,2.0849,2.0851,2.0854,0,0,0,0,0,0,0,0,0,0,0,0,0,2.0652,2.06,2.071,2.0726,2.0728,2.0773,2.0774,2.0776,2.0789,2.0788,2.0787,2.0787,2.0848,2.0851,2.0854,2.0887,0,0,2.0864,2.0865,0,0,0,0,0,0,0,0,2.0649,2.0656,2.0723,2.0725,2.0727,2.0773,2.0758,2.0813,2.0789,2.0766,2.0787,2.0787,2.0824,2.0829,2.0843,2.089,2.0893,2.0864,2.0866,2.0867,2.0868,0,0,0,0,0,0,0,2.0645,2.0654,2.0735,2.0724,2.0727,2.0729,2.0736,2.0768,2.0798,2.0768,2.0769,2.0776,2.0825,2.084,2.0844,2.0894,2.0864,2.0867,2.0869,2.087,2.0972,2.0973,0,0,0,0,0,0,2.0639,2.065,2.0733,2.0737,2.0686,2.0732,2.0739,2.0759,2.0798,2.0803,2.0777,2.0777,2.0835,2.0841,2.0847,2.0889,2.0867,2.087,2.0872,2.0971,2.0972,2.0973,0,0,0,0,0,0,2.0637,2.0646,2.0731,2.0694,2.0705,2.0734,2.0756,2.076,2.0775,2.0805,2.081,2.0786,2.0834,2.0842,2.0877,2.0891,2.0872,2.0875,2.097,2.0971,2.0973,2.0972,0,0,0,0,0,0,2.0633,2.0645,2.0659,2.0694,2.0707,2.0761,2.0757,2.0762,2.078,2.0781,2.0815,2.082,2.0834,2.0873,2.0881,2.0895,2.0877,2.0969,2.0971,2.0972,2.0971,2.0973,2.0975,0,0,0,0,0,2.0629,2.0656,2.066,2.067,2.0725,2.0762,2.0769,2.0786,2.0781,2.0795,2.0814,2.0819,2.0888,2.0876,2.0885,2.0901,2.0968,2.097,2.0972,2.097,2.0973,2.0975,0,0,0,0,0,0,2.062,2.0661,2.0665,2.0704,2.073,2.0764,2.0782,2.0788,2.0815,2.0814,2.0834,2.0841,2.0875,2.0891,2.0878,2.0935,2.0928,2.0932,2.0923,2.0926,2.0928,2.0924,2.088,0,0,0,0,0,2.0623,2.0651,2.0684,2.0715,2.0728,2.0752,2.0769,2.078,2.0807,2.0818,2.084,2.0865,2.0892,2.091,2.0937,2.0973,2.0981,2.0988,2.099,2.0991,2.0995,2.1016,2.1019,2.0979,2.0979,2.0979,0,0,2.0628,2.0654,2.067,2.0714,2.0735,2.0763,2.0761,2.0791,2.0811,2.0822,2.0857,2.0874,2.0903,2.0939,2.0956,2.0953,2.1007,2.0994,2.0995,2.0997,2.1018,2.1022,2.1025,2.098,2.098,2.098,0,0,2.0653,2.0675,2.0703,2.0725,2.0757,2.0773,2.078,2.0814,2.0826,2.0861,2.087,2.0894,2.0941,2.0961,2.0978,2.101,2.1015,2.1018,2.1028,2.1048,2.1052,2.1055,2.1066,2.107,2.1021,2.1021,2.1021,0,2.0655,2.0699,2.0717,2.0746,2.0765,2.0777,2.0806,2.0825,2.0864,2.0876,2.0872,2.0932,2.0952,2.0994,2.1001,2.1014,2.1022,2.1015,2.105,2.1053,2.1056,2.1068,2.1072,2.1021,2.1021,2.1021,2.1021,0,2.07,2.073,2.0749,2.0788,2.0808,2.0837,2.0859,2.0878,2.0887,2.0903,2.0939,2.0964,2.0996,2.1006,2.1015,2.1049,2.1047,2.1046,2.104,2.106,2.1071,2.1075,2.1021,2.1021,2.1021,2.1021,0,0,2.0722,2.077,2.0777,2.0795,2.0831,2.0854,2.0882,2.0915,2.0931,2.0957,2.0981,2.1021,2.1021,2.1039,2.105,2.1068,2.1092,2.1065,2.1066,2.107,2.1131,2.1132,2.1137,2.1095,2.1096,2.1097,2.1129,0,2.0751,2.0805,2.0822,2.0866,2.0894,2.0905,2.093,2.0954,2.097,2.0995,2.1012,2.104,2.1038,2.1049,2.1067,2.1085,2.1105,2.1083,2.1118,2.1119,2.1112,2.1143,2.1144,2.1173,2.1134,2.1134,2.1135,0,2.0793,2.0821,2.0869,2.0902,2.0914,2.0936,2.0968,2.0991,2.1019,2.1029,2.105,2.106,2.1089,2.108,2.1122,2.1107,2.1122,2.1133,2.1134,2.1139,2.1129,2.1149,2.1183,2.1188,2.1142,2.1141,2.1141,0,2.0805,2.0854,2.0889,2.0904,2.0943,2.0959,2.0975,2.1002,2.1021,2.1048,2.106,2.1089,2.1105,2.1127,2.1144,2.1136,2.1184,2.1176,2.1193,2.1193,2.1204,2.1203,2.1241,2.1212,2.1212,2.1212,2.1212,0,2.0837,2.0866,2.0895,2.0917,2.0949,2.0968,2.0999,2.1016,2.104,2.1064,2.1075,2.1097,2.1118,2.1143,2.1156,2.1188,2.1195,2.1204,2.1207,2.1204,2.1203,2.1214,2.1213,2.1213,2.1213,2.1212,2.1212,0,2.0856,2.0877,2.0916,2.095,2.0959,2.0982,2.101,2.1031,2.1047,2.1078,2.1086,2.1111,2.1141,2.116,2.1197,2.1206,2.1242,2.1244,2.1233,2.1235,2.1251,2.1249,2.1299,2.1307,2.1271,2.1271,2.1272,0,2.0876,2.0898,2.0935,2.0953,2.097,2.0998,2.1017,2.1036,2.1055,2.1088,2.1105,2.1136,2.1162,2.1209,2.123,2.1258,2.1262,2.1277,2.1266,2.1262,2.1263,2.1262,2.1264,2.1279,2.128,2.128,2.128,0,2.0909,2.0918,2.0946,2.0977,2.1,2.1025,2.1051,2.1064,2.1087,2.1108,2.1139,2.1159,2.1198,2.1229,2.1259,2.1275,2.1282,2.1283,2.1289,2.1286,2.1279,2.1284,2.1239,2.1282,2.1282,2.1282,2.1282,2.1282,2.0929,2.095,2.0979,2.101,2.1031,2.1054,2.1076,2.1095,2.1121,2.1156,2.1164,2.1197,2.1223,2.1266,2.1282,2.1308,2.1305,2.1313,2.1315,2.1317,2.1318,2.1274,2.1313,2.1313,2.1313,2.1313,2.1313,0,2.0963,2.0983,2.1011,2.1046,2.107,2.1074,2.1102,2.1122,2.1151,2.1175,2.1201,2.1236,2.1266,2.1289,2.1319,2.1335,2.1338,2.1342,2.1342,2.1345,2.1318,2.1311,2.1339,2.1339,2.1339,2.1339,2.1339,2.1339,2.0984,2.102,2.1032,2.1078,2.1097,2.113,2.1146,2.1167,2.1187,2.1227,2.1251,2.1267,2.129,2.1322,2.1349,2.1355,2.1366,2.1369,2.1376,2.135,2.1347,2.1345,2.1338,2.1371,2.1371,2.1402,2.1402,2.1402]}]]